CW6666 Weather Reports


Display with metric or nautical units.
time (UTC)temp
F
wind
direction
speed
MPH
gust
MPH
rain 1hr
in
rain 24hr
in
rain mn
in
humidity
%
barometer
mb
20150703075117 82 30 19.0 21.0 0.01 0.82 0.77 88 998.9
20150703074617 82 34 12.0 16.0 0.01 0.82 0.77 86 998.9
20150703074117 81 36 13.0 17.0 0.01 0.82 0.77 87 998.9
20150703073616 81 28 13.0 24.0 0.01 0.82 0.77 89 998.9
20150703073116 81 25 14.0 33.0 0.01 0.82 0.77 91 998.9
20150703072616 82 5 15.0 33.0 0.01 0.82 0.77 93 998.6
20150703072116 83 46 29.0 31.0 0.01 0.82 0.77 88 998.6
20150703071616 84 27 15.0 19.0 0.00 0.81 0.76 88 998.6
20150703071116 84 32 11.0 19.0 0.00 0.81 0.76 88 998.6
20150703070616 83 38 12.0 14.0 0.00 0.81 0.76 89 998.6
20150703070115 83 17 7.0 14.0 0.00 0.81 0.76 89 998.6
20150703065616 83 24 4.0 11.0 0.00 0.81 0.76 89 998.6
20150703065115 82 26 5.0 11.0 0.02 0.81 0.76 89 998.6
20150703064615 82 24 7.0 13.0 0.12 0.81 0.76 90 998.6
20150703064115 82 20 10.0 13.0 0.14 0.81 0.76 91 998.8
20150703063615 82 24 9.0 13.0 0.14 0.81 0.76 91 998.8
20150703063115 82 22 10.0 15.0 0.14 0.81 0.76 92 998.8
20150703062614 81 11 8.0 15.0 0.14 0.81 0.76 92 999.0
20150703062115 81 39 9.0 13.0 0.14 0.81 0.76 93 999.0
20150703061614 80 22 10.0 15.0 0.14 0.81 0.76 93 999.0
20150703061114 80 9 10.0 19.0 0.14 0.81 0.76 93 999.2
20150703060614 80 14 14.0 19.0 0.14 0.81 0.76 93 999.2
20150703060114 81 5 15.0 23.0 0.14 0.81 0.76 93 999.2
20150703055614 81 13 12.0 24.0 0.14 0.81 0.76 94 999.1
20150703055113 81 9 14.0 24.0 0.12 0.79 0.74 92 999.1
20150703054614 82 27 16.0 28.0 0.02 0.69 0.64 91 999.1
20150703054114 83 25 18.0 28.0 0.00 0.67 0.62 88 999.1
20150703053613 85 14 15.0 20.0 0.00 0.67 0.62 86 999.1
20150703053113 85 22 14.0 19.0 0.00 0.67 0.62 86 999.1
20150703052613 85 30 14.0 23.0 0.00 0.67 0.62 86 999.1
20150703052113 85 26 16.0 23.0 0.00 0.67 0.62 85 999.1
20150703051613 85 21 13.0 21.0 0.00 0.67 0.62 85 999.1
20150703051112 85 29 11.0 23.0 0.00 0.67 0.62 85 999.4
20150703050612 85 35 16.0 23.0 0.00 0.67 0.62 87 999.4
20150703050112 85 23 16.0 18.0 0.00 0.67 0.62 87 999.4
20150703045612 85 14 13.0 19.0 0.00 0.67 0.62 87 999.4
20150703045112 84 55 13.0 19.0 0.00 0.67 0.62 87 999.4
20150703044612 85 26 9.0 14.0 0.00 0.67 0.62 87 999.4
20150703044111 85 5 13.0 14.0 0.00 0.67 0.62 87 999.5
20150703043611 84 22 12.0 21.0 0.00 0.67 0.62 88 999.5
20150703043111 84 27 12.0 23.0 0.00 0.67 0.62 88 999.5
20150703042611 84 34 21.0 23.0 0.01 0.67 0.62 89 999.9
20150703042111 83 17 14.0 23.0 0.01 0.67 0.62 88 999.9
20150703041611 83 26 16.0 23.0 0.01 0.67 0.62 90 999.9
20150703041111 83 24 7.0 15.0 0.01 0.67 0.62 91 1000.0
20150703040611 82 342 12.0 15.0 0.01 0.67 0.62 91 1000.0
20150703040110 82 16 6.0 21.0 0.01 0.67 0.62 91 1000.0
20150703035611 82 30 8.0 21.0 0.01 0.67 0.62 92 1000.0
20150703035110 82 15 15.0 22.0 0.01 0.67 0.62 91 1000.0
20150703034610 82 21 18.0 22.0 0.01 0.67 0.62 91 1000.0
20150703034110 82 36 16.0 33.0 0.01 0.67 0.62 92 1000.1
20150703033610 82 33 15.0 33.0 0.01 0.67 0.62 91 1000.1
20150703033110 85 51 31.0 32.0 0.01 0.67 0.62 84 1000.1
20150703032610 87 22 12.0 20.0 0.00 0.66 0.61 83 1000.1
20150703032110 87 17 11.0 16.0 0.00 0.66 0.61 83 1000.1
20150703031609 87 21 13.0 18.0 0.00 0.66 0.61 82 1000.1
20150703031109 87 13 10.0 19.0 0.00 0.66 0.61 84 1000.3
20150703030609 86 36 18.0 19.0 0.00 0.66 0.61 82 1000.3
20150703030109 86 14 14.0 17.0 0.00 0.66 0.61 85 1000.3
20150703025608 85 34 15.0 21.0 0.00 0.66 0.61 88 1000.1
20150703025109 85 30 12.0 21.0 0.00 0.66 0.61 89 1000.1
20150703024608 85 38 19.0 19.0 0.00 0.66 0.61 89 1000.1
20150703024108 85 31 15.0 17.0 0.00 0.66 0.61 89 1000.4
20150703023608 85 30 11.0 15.0 0.00 0.66 0.61 88 1000.4
20150703023108 85 28 10.0 15.0 0.00 0.66 0.61 87 1000.4
20150703022608 85 28 7.0 16.0 0.00 0.66 0.61 89 1000.9
20150703022108 84 31 12.0 19.0 0.00 0.66 0.61 90 1000.9
20150703021607 84 26 12.0 19.0 0.00 0.66 0.61 89 1000.9
20150703021107 85 26 13.0 14.0 0.00 0.66 0.61 86 1001.0
20150703020607 86 26 5.0 16.0 0.00 0.66 0.61 85 1001.0
20150703020107 86 9 10.0 16.0 0.00 0.66 0.61 84 1001.0
20150703015607 86 22 12.0 19.0 0.00 0.66 0.61 83 1001.5
20150703015107 86 26 13.0 20.0 0.00 0.66 0.61 84 1001.5
20150703014606 85 28 16.0 20.0 0.00 0.66 0.61 85 1001.5
20150703014106 85 34 9.0 13.0 0.00 0.66 0.61 85 1001.9
20150703013606 85 15 6.0 10.0 0.00 0.66 0.61 87 1001.9
20150703013106 84 22 8.0 11.0 0.01 0.66 0.61 86 1001.9
20150703012606 84 17 7.0 14.0 0.01 0.66 0.61 87 1002.0
20150703012106 84 5 8.0 14.0 0.01 0.66 0.61 87 1002.0
20150703011606 84 20 8.0 14.0 0.01 0.66 0.61 87 1002.0
20150703011106 84 30 10.0 13.0 0.01 0.66 0.61 88 1002.0
20150703010606 84 30 11.0 18.0 0.01 0.66 0.61 89 1002.0
20150703010106 84 23 9.0 18.0 0.01 0.66 0.61 88 1002.0
20150703005605 85 17 9.0 13.0 0.01 0.66 0.61 87 1001.6
20150703005105 85 5 8.0 13.0 0.01 0.66 0.61 87 1001.6
20150703004605 85 360 2.0 13.0 0.01 0.66 0.61 87 1001.6
20150703004105 85 9 9.0 14.0 0.01 0.66 0.61 86 1001.8
20150703003605 85 9 6.0 14.0 0.01 0.66 0.61 87 1001.8
20150703003104 85 23 13.0 13.0 0.00 0.65 0.60 88 1001.8
20150703002604 84 14 5.0 12.0 0.00 0.65 0.60 89 1002.0
20150703002105 84 9 3.0 13.0 0.00 0.65 0.60 89 1002.0
20150703001604 83 286 4.0 13.0 0.01 0.65 0.60 89 1002.0
20150703001104 83 355 6.0 13.0 0.05 0.65 0.60 90 1002.0
20150703000604 83 323 6.0 11.0 0.15 0.65 0.60 91 1002.0
20150703000104 83 304 3.0 10.0 0.16 0.65 0.60 92 1002.0
20150702235603 82 5 1.0 9.0 0.16 0.65 0.60 93 1002.0
20150702235103 82 36 4.0 9.0 0.16 0.65 0.60 94 1002.0
20150702234604 82 346 1.0 9.0 0.16 0.66 0.60 94 1002.0
20150702234104 82 303 3.0 8.0 0.16 0.66 0.60 94 1002.3
20150702233603 81 350 1.0 8.0 0.16 0.66 0.60 94 1002.3
20150702233103 82 349 2.0 12.0 0.16 0.66 0.60 94 1002.3
20150702232602 82 28 0.0 18.0 0.16 0.66 0.60 94 1003.0
20150702232102 81 30 10.0 25.0 0.16 0.66 0.60 94 1003.0
20150702231602 81 26 13.0 26.0 0.15 0.65 0.59 94 1003.0
20150702231102 82 33 13.0 26.0 0.11 0.61 0.55 91 1002.5
20150702230602 82 15 1.0 9.0 0.01 0.51 0.45 92 1002.5
20150702230102 82 5 0.0 7.0 0.00 0.50 0.44 92 1002.5
20150702225602 82 5 7.0 7.0 0.00 0.50 0.44 92 1002.5
20150702225102 82 337 1.0 9.0 0.00 0.50 0.44 93 1002.5
20150702224601 82 344 3.0 9.0 0.00 0.50 0.44 93 1002.5
20150702224102 82 316 2.0 9.0 0.00 0.50 0.44 93 1002.3
20150702223602 82 338 2.0 9.0 0.06 0.50 0.44 94 1002.3
20150702223101 82 309 4.0 5.0 0.14 0.50 0.44 94 1002.3
20150702222601 81 311 0.0 4.0 0.23 0.50 0.44 94 1002.4
20150702222101 81 313 0.0 4.0 0.30 0.50 0.44 94 1002.4
20150702221601 81 331 0.0 3.0 0.30 0.50 0.44 94 1002.4
20150702221100 81 331 0.0 3.0 0.30 0.50 0.44 94 1002.3
20150702220600 81 331 0.0 3.0 0.30 0.50 0.44 94 1002.3
20150702220101 81 331 1.0 3.0 0.32 0.50 0.44 94 1002.3
20150702215600 81 15 0.0 3.0 0.41 0.50 0.44 94 1002.3
20150702215100 80 36 0.0 7.0 0.43 0.50 0.44 94 1002.3
20150702214600 80 36 2.0 15.0 0.44 0.50 0.44 93 1002.3
20150702214100 81 38 1.0 15.0 0.44 0.50 0.44 93 1002.2
20150702213600 81 84 10.0 10.0 0.38 0.44 0.38 93 1002.2
20150702213059 81 91 3.0 3.0 0.30 0.36 0.30 93 1002.2
20150702212559 81 306 0.0 4.0 0.21 0.27 0.21 92 1002.1
20150702212059 81 306 0.0 4.0 0.14 0.20 0.14 92 1002.1
20150702211559 82 28 0.0 13.0 0.14 0.20 0.14 92 1002.1
20150702211059 82 28 1.0 13.0 0.14 0.20 0.14 92 1002.5
20150702210559 82 44 11.0 12.0 0.14 0.20 0.14 91 1002.5
20150702210059 82 20 3.0 10.0 0.12 0.18 0.12 91 1002.5
20150702205558 82 340 0.0 2.0 0.03 0.09 0.03 89 1002.1
20150702205058 82 340 0.0 6.0 0.01 0.07 0.01 88 1002.1
20150702204558 83 327 1.0 6.0 0.00 0.06 0.00 88 1002.1
20150702204058 83 315 2.0 10.0 0.00 0.06 0.00 87 1001.7
20150702203558 83 314 0.0 10.0 0.00 0.06 0.00 87 1001.7
20150702203058 83 280 0.0 8.0 0.00 0.06 0.00 87 1001.7
20150702202558 82 337 1.0 8.0 0.00 0.06 0.00 87 1001.5
20150702202101 82 302 5.0 11.0 0.00 0.06 0.00 88 1001.5
20150702201557 82 306 5.0 12.0 0.00 0.06 0.00 87 1001.5
20150702201057 82 300 5.0 12.0 0.00 0.06 0.00 87 1001.1
20150702200557 82 297 4.0 12.0 0.00 0.06 0.00 87 1001.1
20150702200057 82 310 5.0 11.0 0.00 0.06 0.00 87 1001.1
20150702195616 82 308 3.0 11.0 0.00 0.06 0.00 88 1001.3
20150702195056 82 306 4.0 9.0 0.00 0.06 0.00 87 1001.3
20150702194556 82 300 4.0 7.0 0.00 0.06 0.00 87 1001.3
20150702194104 82 313 3.0 8.0 0.00 0.06 0.00 87 1001.3
20150702193556 82 300 0.0 8.0 0.00 0.06 0.00 87 1001.3
20150702193056 82 314 0.0 9.0 0.00 0.06 0.00 87 1001.3
20150702192556 82 300 1.0 12.0 0.00 0.06 0.00 86 1001.4
20150702192056 82 299 9.0 12.0 0.00 0.06 0.00 87 1001.4
20150702191555 82 308 6.0 11.0 0.00 0.06 0.00 86 1001.4
20150702191056 82 298 9.0 11.0 0.00 0.06 0.00 86 1001.5
20150702190556 82 297 4.0 10.0 0.00 0.06 0.00 86 1001.5
20150702190100 82 334 3.0 7.0 0.00 0.06 0.00 87 1001.5
20150702185555 82 348 1.0 10.0 0.00 0.06 0.00 87 1001.4
20150702185055 82 303 3.0 10.0 0.00 0.06 0.00 87 1001.4
20150702184555 82 303 5.0 10.0 0.00 0.06 0.00 88 1001.4
20150702184054 82 306 2.0 10.0 0.00 0.06 0.00 88 1001.0
20150702183554 82 292 6.0 10.0 0.00 0.06 0.00 89 1001.0
20150702183054 82 309 3.0 10.0 0.00 0.06 0.00 89 1001.0
20150702182554 82 299 6.0 10.0 0.00 0.06 0.00 89 1001.0
20150702182054 82 294 4.0 10.0 0.00 0.06 0.00 89 1001.0
20150702181554 82 295 2.0 12.0 0.00 0.06 0.00 90 1001.0
20150702181054 82 298 6.0 12.0 0.00 0.06 0.00 89 1001.4
20150702180553 82 304 5.0 12.0 0.00 0.06 0.00 89 1001.4
20150702180053 82 304 4.0 10.0 0.00 0.06 0.00 90 1001.4
20150702175554 82 298 9.0 11.0 0.00 0.06 0.00 90 1001.6
20150702175053 81 306 3.0 11.0 0.00 0.06 0.00 90 1001.6
20150702174555 81 302 5.0 9.0 0.00 0.06 0.00 90 1001.6
20150702174053 81 296 3.0 7.0 0.00 0.06 0.00 90 1001.9
20150702173553 81 292 4.0 7.0 0.00 0.06 0.00 90 1001.9
20150702173052 81 301 4.0 7.0 0.00 0.06 0.00 90 1001.9
20150702172552 81 300 4.0 6.0 0.00 0.06 0.00 90 1002.5
20150702172053 82 298 2.0 6.0 0.00 0.06 0.00 90 1002.5
20150702171552 82 306 3.0 6.0 0.00 0.06 0.00 90 1002.5
20150702171053 81 317 1.0 4.0 0.00 0.06 0.00 90 1002.6
20150702170552 81 308 0.0 6.0 0.00 0.06 0.00 90 1002.6
20150702170052 81 297 2.0 6.0 0.00 0.06 0.00 90 1002.6
20150702165551 81 307 2.0 5.0 0.00 0.06 0.00 90 1002.5
20150702165051 82 309 4.0 6.0 0.00 0.06 0.00 90 1002.5
20150702164551 82 300 3.0 7.0 0.00 0.06 0.00 90 1002.5
20150702164051 82 296 5.0 7.0 0.00 0.06 0.00 90 1002.4
20150702163551 81 304 4.0 7.0 0.00 0.06 0.00 90 1002.4
20150702163051 81 300 4.0 7.0 0.00 0.06 0.00 90 1002.4
20150702162551 81 304 4.0 6.0 0.00 0.06 0.00 90 1002.6
20150702162050 82 307 4.0 6.0 0.00 0.06 0.00 90 1002.6
20150702161550 82 310 3.0 6.0 0.00 0.06 0.00 90 1002.6
20150702161120 81 318 2.0 4.0 0.00 0.07 0.00 90 1002.7
20150702160620 81 321 3.0 5.0 0.00 0.07 0.00 90 1002.7
20150702160050 81 296 4.0 6.0 0.00 0.07 0.00 90 1002.7
20150702155550 82 298 0.0 6.0 0.00 0.07 0.00 90 1003.0
20150702155120 82 300 4.0 6.0 0.00 0.07 0.00 90 1003.0
20150702154620 82 293 3.0 6.0 0.00 0.07 0.00 90 1003.0
20150702154120 82 297 3.0 6.0 0.00 0.07 0.00 90 1003.1
20150702153600 82 298 3.0 6.0 0.00 0.07 0.00 90 1003.1
20150702153119 82 304 2.0 6.0 0.00 0.07 0.00 90 1003.1
20150702152549 82 304 4.0 6.0 0.00 0.07 0.00 90 1003.4
20150702152049 82 297 5.0 7.0 0.00 0.07 0.00 91 1003.4
20150702151556 82 299 3.0 7.0 0.00 0.07 0.00 91 1003.4
20150702151049 82 298 2.0 6.0 0.00 0.07 0.00 91 1003.5
20150702150624 81 298 4.0 6.0 0.00 0.07 0.00 91 1003.5
20150702150050 81 298 1.0 4.0 0.00 0.07 0.00 91 1003.5
20150702145549 81 298 1.0 4.0 0.00 0.07 0.00 91 1003.7
20150702145049 81 298 2.0 3.0 0.00 0.07 0.00 91 1003.7
20150702144622 81 298 2.0 3.0 0.00 0.07 0.00 90 1003.7
20150702144118 81 298 0.0 3.0 0.00 0.07 0.00 90 1003.8
20150702143117 81 298 0.0 2.0 0.00 0.07 0.00 90 1003.8
20150702142618 82 298 0.0 3.0 0.00 0.07 0.00 90 1003.8
20150702142117 82 296 1.0 5.0 0.00 0.08 0.00 90 1003.8
20150702141635 82 296 2.0 5.0 0.00 0.08 0.00 90 1003.8
20150702141117 82 294 4.0 9.0 0.00 0.08 0.00 90 1004.1
20150702140618 82 304 1.0 9.0 0.00 0.08 0.00 90 1004.1
20150702140117 82 298 1.0 7.0 0.00 0.08 0.00 91 1004.1
20150702135617 81 309 4.0 7.0 0.00 0.08 0.08 91 1004.1
20150702135118 81 300 2.0 6.0 0.00 0.08 0.08 91 1004.1
20150702134618 81 296 3.0 6.0 0.00 0.08 0.08 92 1004.1
20150702134121 81 298 3.0 6.0 0.00 0.08 0.08 92 1004.3
20150702133619 81 298 1.0 7.0 0.00 0.08 0.08 92 1004.3
20150702133116 81 302 1.0 7.0 0.00 0.08 0.08 92 1004.3
20150702132615 81 300 4.0 6.0 0.00 0.08 0.08 92 1004.4
20150702132115 81 300 3.0 6.0 0.00 0.08 0.08 92 1004.4
20150702131616 81 297 4.0 6.0 0.00 0.08 0.08 92 1004.4
20150702131115 81 302 2.0 6.0 0.00 0.08 0.08 92 1004.5
20150702130639 81 296 2.0 5.0 0.00 0.08 0.08 93 1004.5
20150702130115 81 296 0.0 5.0 0.00 0.08 0.08 93 1004.5
20150702125115 81 297 0.0 5.0 0.00 0.08 0.08 93 1004.6
20150702124615 81 296 2.0 5.0 0.00 0.08 0.08 93 1004.6
20150702124114 81 296 3.0 5.0 0.00 0.08 0.08 93 1004.6
20150702123614 81 298 2.0 3.0 0.00 0.08 0.08 92 1004.6
20150702123114 81 298 0.0 5.0 0.00 0.08 0.08 92 1004.6
20150702122614 81 298 1.0 5.0 0.00 0.08 0.08 92 1004.8
20150702122116 81 295 0.0 6.0 0.00 0.08 0.08 92 1004.8
20150702121613 81 296 1.0 7.0 0.00 0.08 0.08 92 1004.8
20150702121114 81 303 3.0 7.0 0.00 0.08 0.08 93 1005.1
20150702120614 81 296 3.0 6.0 0.00 0.08 0.08 93 1005.1
20150702120113 81 297 3.0 6.0 0.00 0.08 0.08 93 1005.1
20150702115614 81 294 1.0 4.0 0.00 0.08 0.08 93 1005.1
20150702115114 81 296 3.0 4.0 0.00 0.08 0.08 93 1005.1
20150702114613 81 296 1.0 4.0 0.00 0.08 0.08 93 1005.1
20150702114115 81 296 3.0 4.0 0.00 0.08 0.08 93 1004.9
20150702113613 81 295 0.0 0.0 0.00 0.08 0.08 93 1004.9
20150702113112 81 295 0.0 5.0 0.00 0.08 0.08 93 1004.9
20150702112613 81 295 0.0 5.0 0.00 0.08 0.08 92 1004.7
20150702112112 81 293 0.0 5.0 0.00 0.08 0.08 92 1004.7
20150702111612 81 302 0.0 5.0 0.00 0.08 0.08 92 1004.7
20150702111112 81 301 0.0 5.0 0.00 0.08 0.08 92 1004.6
20150702110611 81 302 1.0 3.0 0.03 0.08 0.08 92 1004.6
20150702110111 81 302 1.0 3.0 0.05 0.08 0.08 92 1004.6
20150702105612 81 302 1.0 2.0 0.05 0.08 0.08 92 1004.6
20150702105112 81 302 0.0 4.0 0.05 0.08 0.08 92 1004.6
20150702104611 81 302 1.0 4.0 0.05 0.08 0.08 91 1004.6
20150702104111 81 304 2.0 4.0 0.05 0.08 0.08 91 1004.6
20150702103611 81 304 0.0 5.0 0.05 0.08 0.08 91 1004.6
20150702103111 82 306 0.0 5.0 0.05 0.08 0.08 90 1004.6
20150702102610 82 293 1.0 5.0 0.05 0.08 0.08 91 1004.6
20150702102110 82 298 0.0 3.0 0.05 0.08 0.08 90 1004.6
20150702101610 82 298 0.0 6.0 0.05 0.08 0.08 89 1004.6
20150702101110 82 298 0.0 10.0 0.05 0.08 0.08 88 1004.6
20150702100610 83 291 5.0 10.0 0.02 0.05 0.05 87 1004.6
20150702100110 83 301 1.0 3.0 0.00 0.03 0.03 87 1004.6
20150702095127 83 294 2.0 4.0 0.00 0.03 0.03 87 1004.3
20150702094609 83 292 0.0 3.0 0.00 0.03 0.03 87 1004.3
20150702094109 83 292 0.0 4.0 0.00 0.03 0.03 87 1004.2
20150702093633 83 292 2.0 4.0 0.00 0.03 0.03 87 1004.2
20150702093118 83 289 0.0 5.0 0.00 0.03 0.03 87 1004.2
20150702092626 83 289 0.0 5.0 0.00 0.03 0.03 87 1004.1
20150702091108 84 296 3.0 6.0 0.00 0.03 0.03 86 1003.9
20150702090610 84 294 4.0 7.0 0.00 0.03 0.03 86 1003.9
20150702090108 84 302 3.0 7.0 0.00 0.03 0.03 86 1003.9
20150702085609 84 308 3.0 6.0 0.00 0.03 0.03 86 1003.8
20150702085132 84 308 1.0 6.0 0.00 0.03 0.03 85 1003.8
20150702084608 84 308 5.0 6.0 0.00 0.03 0.03 85 1003.8
20150702084108 85 308 0.0 6.0 0.00 0.03 0.03 84 1003.7
20150702083608 85 309 2.0 5.0 0.00 0.03 0.03 84 1003.7
20150702083108 85 310 1.0 5.0 0.00 0.03 0.03 84 1003.7
20150702082607 85 310 2.0 5.0 0.00 0.03 0.03 83 1003.6
20150702082107 85 310 1.0 5.0 0.00 0.03 0.03 83 1003.6
20150702081607 85 312 4.0 5.0 0.00 0.03 0.03 83 1003.6
20150702081107 85 338 0.0 4.0 0.00 0.03 0.03 83 1003.3
20150702080606 86 9 1.0 3.0 0.00 0.03 0.03 82 1003.3
20150702080107 86 9 0.0 5.0 0.00 0.03 0.03 82 1003.3
20150702075606 86 9 2.0 5.0 0.00 0.03 0.03 82 1003.1